Location: ?????????
(53.2086°N, 54.0693°E)
Time: 11:44:25
(UTC+00:00)

NOSS 3-1 (C) - Pass Details

Date: 08 December 2019
Orbit: 763 x 1445 km, 63.4° (Epoch: 18 January)

Event Time Altitude Azimuth Distance (km) Brightness Sun altitude
Rises 13:51:17 0° 299° (WNW) 3,665 7.2 -14.5°
Reaches altitude 10° 13:53:52 10° 307° (NW) 2,811 6.4 -14.9°
Maximum altitude 14:00:12 41° 17° (NNE) 1,600 4.4 -15.8°
Enters shadow 14:04:29 23° 73° (ENE) 2,349 4.8 -16.4°
